GFSNE_250_rhum_000.txt.gz
RH
47 44 40 38 36 32 30 26 22 14 14 23 18 19 10 7 7 8 8 7 8 8 9 10 9 11 16 15 16 26 37 42 62 56 45 64 77 92
44 39 36 34 32 37 40 36 26 19 13 13 6 5 5 4 4 5 5 4 5 6 5 5 6 6 7 9 10 10 13 17 22 32 32 42 42 51
37 37 36 33 36 40 31 29 25 17 11 5 3 4 4 3 3 3 2 2 3 3 3 3 3 4 4 5 6 7 9 10 14 17 19 24 34 24
39 39 35 37 38 32 29 21 11 6 4 3 3 2 2 2 2 3 2 2 2 3 3 3 3 3 3 4 4 5 7 8 9 11 13 17 23 19
41 40 38 41 40 26 15 9 5 4 4 2 2 2 2 2 2 2 3 2 2 3 2 2 2 2 3 3 4 4 5 6 8 8 9 10 13 18
49 52 43 32 18 12 7 4 4 4 2 2 2 2 2 2 2 2 2 2 2 2 2 2 2 3 3 3 3 4 4 5 6 7 9 11 16 20
49 38 21 13 8 6 4 5 4 2 2 2 2 2 2 2 2 2 2 2 2 2 2 2 3 2 3 4 4 4 4 5 5 8 10 14 18 21
26 18 11 7 4 4 5 4 3 2 2 2 2 2 2 2 2 2 2 2 2 2 2 3 2 3 3 3 4 5 5 5 6 6 8 12 17 25
15 10 6 4 4 5 4 4 3 2 2 2 2 2 1 1 2 2 2 2 2 2 2 3 2 3 3 4 5 6 6 6 7 7 8 9 11 21
9 6 4 4 4 4 4 4 3 3 2 1 2 2 1 1 2 2 2 2 2 2 2 3 3 3 4 4 5 6 7 8 8 8 8 7 9 12
7 5 4 4 3 3 4 4 3 2 2 2 2 2 2 2 2 3 3 3 2 2 3 3 3 4 4 5 6 8 9 11 11 9 9 10 11 11
5 4 4 3 3 4 4 3 2 3 3 2 2 2 3 3 3 3 3 3 3 3 4 4 4 5 5 6 7 10 11 11 10 10 9 9 9 11
5 4 4 4 4 4 3 2 3 4 3 2 3 3 4 4 4 4 4 4 3 4 5 5 5 5 6 6 9 9 10 12 11 11 11 10 8 8
5 4 4 4 3 3 3 3 4 4 3 3 4 5 5 5 5 5 5 5 5 5 5 6 5 5 6 8 8 10 11 12 11 11 12 11 9 7
4 5 4 4 3 3 3 3 4 3 4 5 5 6 5 6 6 6 5 5 6 6 6 6 6 6 8 10 11 11 11 12 12 12 12 12 12 10
5 5 4 3 3 3 3 4 4 4 5 6 6 6 6 6 6 7 7 7 7 7 8 9 9 10 12 13 13 12 12 11 11 11 12 13 14 15
5 4 4 3 2 3 4 4 4 5 6 6 6 6 7 7 8 8 8 9 10 11 11 10 9 10 12 13 15 16 16 15 14 12 13 16 18 21
4 4 4 2 3 4 5 4 5 7 8 8 8 8 9 9 10 10 10 11 11 11 11 11 13 16 16 17 19 20 20 19 19 19 20 20 22 24
4 4 3 3 4 5 4 5 8 8 9 9 10 10 10 10 10 11 11 11 11 11 14 15 16 17 19 20 21 21 24 25 26 24 28 31 31 32
4 3 3 4 6 5 5 8 9 10 12 13 12 12 12 13 13 14 15 17 20 22 22 21 19 19 20 23 26 28 31 31 35 37 38 40 45 46
3 3 4 6 5 5 8 11 13 13 14 15 15 17 18 16 18 20 25 26 24 30 34 37 42 47 42 40 42 45 56 60 65 68 67 68 71 83
3 4 6 6 7 9 12 14 15 16 19 20 20 23 20 18 21 23 24 26 29 36 37 41 46 57 46 36 34 39 36 45 58 68 73 69 64 73
4 6 6 8 10 14 14 14 15 17 20 18 17 18 21 24 26 28 32 39 44 46 44 40 51 49 50 49 43 43 48 49 51 58 60 61 67 73

GFSNE_250_rhum_003.txt.gz
RH
74 67 51 49 49 42 42 44 41 34 30 35 30 35 27 20 12 8 7 7 6 4 4 4 4 4 4 4 5 6 8 9 13 19 23 21 40 44
56 50 51 42 41 46 45 41 36 30 23 28 23 17 11 7 5 4 4 4 4 4 4 4 3 3 3 4 4 5 6 8 9 11 14 19 17 36
47 42 41 46 50 44 38 36 33 29 20 15 10 8 5 4 4 4 3 3 2 2 2 2 2 2 2 2 3 3 4 4 5 8 12 13 19 20
40 46 51 48 39 38 37 32 23 18 10 7 5 4 4 4 3 2 2 2 2 2 2 2 2 2 2 2 2 2 3 3 4 5 7 9 14 28
50 49 43 38 36 31 25 20 14 11 7 4 4 3 2 2 2 2 2 2 2 2 2 2 2 2 2 2 2 2 3 4 4 4 4 6 8 14
43 40 35 33 28 25 21 13 9 6 4 4 3 2 2 2 2 2 2 2 2 2 1 2 1 1 1 2 2 2 3 4 3 3 4 5 6 10
38 38 32 28 24 15 9 7 5 5 4 3 2 2 3 2 2 2 1 1 1 1 1 2 2 1 1 2 2 2 3 4 4 4 5 4 5 7
38 31 26 19 11 7 6 5 5 5 3 2 2 3 3 2 1 1 1 2 2 1 1 2 2 2 2 2 2 3 4 4 4 5 5 5 5 6
30 22 15 9 6 5 5 5 6 4 2 2 2 2 2 2 2 2 2 1 1 1 1 2 2 2 2 2 3 4 4 4 5 5 5 5 5 6
22 12 8 6 4 5 5 5 5 4 3 2 2 2 2 2 2 2 2 2 2 2 2 3 2 2 2 2 3 4 5 5 5 5 6 6 6 6
10 7 6 5 5 5 4 4 4 4 3 2 2 2 3 3 2 2 3 3 3 3 3 3 2 2 3 3 4 5 5 5 6 6 6 6 6 6
7 6 5 4 5 4 4 3 4 3 3 2 2 3 3 2 3 4 4 4 4 4 4 3 3 3 3 4 5 5 5 5 6 6 6 7 7 8
6 5 5 5 4 4 4 3 3 3 2 2 3 3 3 4 4 5 5 5 5 5 4 4 3 3 3 4 4 5 5 6 6 7 7 8 8 7
5 5 4 4 4 4 4 3 3 3 3 4 4 3 4 5 5 5 5 5 5 5 4 4 4 4 5 5 5 5 5 5 7 8 9 10 10 8
4 4 4 4 4 4 4 4 3 3 5 4 4 5 5 5 5 5 5 5 5 5 5 5 5 6 6 6 6 6 6 8 8 9 11 11 10 10
4 4 4 4 4 4 4 3 3 5 4 4 6 6 6 5 6 6 7 7 7 7 6 6 6 7 6 6 7 7 7 8 10 11 12 14 12 12
5 5 4 4 4 4 3 3 5 5 5 6 7 6 6 7 8 9 9 8 8 8 8 9 8 8 8 9 10 12 11 11 11 12 13 13 13 13
5 4 4 4 4 3 3 5 5 5 7 8 7 8 9 10 11 11 10 11 11 11 11 10 10 9 10 12 13 15 13 12 12 12 13 14 14 14
4 4 4 4 3 3 5 5 6 8 8 8 9 11 12 12 13 13 12 12 12 11 10 10 12 13 15 16 17 17 17 16 15 14 12 12 14 15
4 4 3 3 3 5 6 7 8 9 10 11 13 14 16 16 14 15 15 15 16 17 18 17 16 16 18 20 20 21 19 19 18 18 16 13 14 15
3 3 3 3 5 6 8 9 10 12 13 16 16 19 17 15 17 18 21 22 23 22 24 27 28 30 29 26 24 24 25 24 23 21 21 21 19 19
3 4 4 5 6 8 10 11 12 14 17 20 17 16 16 17 20 25 27 26 27 33 31 31 35 37 37 32 35 43 40 41 34 32 29 27 27 28
4 4 6 7 9 11 12 13 15 16 16 16 17 18 17 18 17 19 20 22 29 30 31 32 30 33 41 44 43 42 61 45 57 54 52 49 49 46

GFSNE_250_rhum_006.txt.gz
RH
87 91 78 78 76 61 48 38 25 22 30 40 37 43 41 34 29 27 27 24 16 10 7 6 4 3 3 3 3 3 3 4 5 6 8 12 17 24
67 77 81 61 50 41 33 31 32 29 25 34 31 29 28 29 26 13 8 6 4 4 3 3 3 3 3 3 3 3 3 3 4 4 4 6 7 10
74 60 54 44 35 32 33 32 30 28 22 24 23 24 16 7 6 5 4 3 3 3 2 2 2 2 2 2 2 2 2 3 3 4 4 5 6 8
56 50 36 30 32 32 29 26 25 26 19 13 8 6 5 4 4 3 4 3 3 2 2 2 2 2 2 2 2 2 2 2 2 3 3 4 6 6
41 31 32 32 28 25 23 23 17 13 8 6 4 4 3 3 4 4 3 2 2 2 2 2 2 2 1 1 1 1 2 2 2 3 3 4 4 4
31 33 31 26 23 22 17 13 9 7 6 4 4 3 3 4 3 2 2 2 2 2 1 2 1 1 1 1 1 1 2 2 2 2 3 3 3 4
34 28 25 22 19 16 10 7 5 5 4 4 3 3 3 3 2 2 2 2 2 1 2 2 2 2 1 1 1 1 1 2 2 2 3 3 4 4
26 26 22 20 13 8 5 5 5 4 3 3 3 2 2 2 2 2 2 2 2 1 3 2 2 1 1 1 1 1 1 2 2 2 3 3 4 4
25 22 18 11 6 5 5 5 5 4 3 2 2 2 2 2 2 2 2 2 2 2 2 1 1 1 1 1 1 1 2 2 2 2 3 3 4 5
22 14 8 6 5 5 4 4 4 4 3 3 3 2 2 2 2 2 2 2 2 2 2 2 2 2 2 2 2 2 2 2 2 2 3 4 4 4
12 8 6 6 5 5 4 4 4 4 3 3 3 2 2 2 2 2 2 2 2 3 4 4 4 3 3 3 3 2 2 2 2 3 3 3 4 4
8 7 6 4 4 4 4 3 4 4 3 3 3 2 2 3 3 3 3 4 4 4 5 5 4 4 4 3 3 3 3 2 2 3 3 3 4 4
6 6 5 5 4 4 4 4 3 3 3 3 2 3 3 3 3 4 4 4 4 5 5 5 5 4 4 4 3 3 3 3 3 3 4 4 4 4
4 5 4 4 4 4 4 4 3 3 3 2 3 3 3 4 5 5 5 5 5 5 5 5 5 5 4 4 4 4 4 4 4 4 4 4 5 5
4 4 4 4 4 4 3 3 3 3 2 3 4 3 4 6 6 6 6 7 7 6 6 6 5 5 5 4 4 5 5 6 6 6 6 6 6 6
4 4 4 4 4 3 3 3 3 2 3 4 4 5 7 7 7 7 8 8 8 8 8 7 6 6 6 6 6 6 6 7 7 7 7 7 7 8
4 4 4 4 3 3 3 3 3 4 4 5 6 8 9 10 10 9 9 9 9 9 9 9 9 8 8 9 8 8 8 8 8 9 10 11 11 10
4 4 4 3 2 3 3 3 4 4 6 8 10 10 11 11 11 12 12 11 10 10 10 10 10 9 8 8 9 11 12 10 10 10 11 12 14 14
4 4 2 2 3 3 3 4 5 6 9 11 12 13 13 13 13 13 12 12 12 11 10 10 11 12 12 12 13 13 13 14 12 13 14 16 17 17
3 2 3 3 3 4 5 5 7 10 12 13 15 15 16 15 14 14 18 20 20 19 18 15 14 16 16 17 18 18 17 17 15 13 14 15 16 17
3 3 4 4 4 5 6 8 11 13 13 16 18 18 18 16 16 19 23 22 20 26 27 23 20 18 17 19 20 20 20 19 18 17 14 14 16 16
4 4 4 4 6 7 10 13 14 16 17 17 16 17 19 19 20 20 21 23 25 28 30 28 30 29 28 22 26 26 22 23 22 20 19 18 15 16
5 4 5 6 9 12 15 17 18 18 18 20 20 22 23 25 24 21 19 18 18 20 24 30 24 24 27 26 33 40 42 32 29 28 23 20 19 18

GFSNE_250_rhum_009.txt.gz
RH
28 40 44 56 66 56 42 38 32 28 31 39 28 31 28 28 28 24 23 23 25 24 20 16 12 8 6 5 5 6 6 6 7 7 7 8 8 10
48 59 63 54 54 47 39 35 27 19 18 27 28 28 27 24 24 20 16 11 8 6 5 4 4 4 3 3 4 3 4 3 3 3 3 3 4 4
59 52 52 49 47 40 32 30 28 26 21 24 23 23 21 15 12 6 4 4 4 4 3 3 3 3 3 3 3 3 4 4 4 3 3 3 3 3
52 51 47 41 37 38 36 29 25 23 19 16 16 13 8 5 5 4 4 3 3 2 2 2 2 2 3 3 3 2 2 2 2 2 2 2 2 3
47 42 39 41 41 35 30 25 20 16 14 10 6 4 4 4 3 3 3 2 2 2 2 2 2 2 2 2 2 2 2 2 2 2 2 2 2 2
40 41 39 34 30 24 18 14 14 10 6 4 4 4 3 3 3 3 3 2 2 2 2 2 2 2 2 2 2 2 1 1 1 2 2 2 2 2
41 35 30 23 20 15 13 11 6 5 4 3 3 3 4 4 3 3 3 3 2 2 2 2 2 2 2 1 2 2 2 2 2 1 1 2 2 2
31 24 23 19 15 14 7 5 5 4 3 3 3 3 3 3 3 2 2 2 2 2 2 1 2 2 2 2 2 2 2 2 2 2 1 1 2 2
22 21 17 13 10 6 5 5 4 4 3 2 3 3 3 3 3 2 2 2 2 2 2 2 2 2 2 2 2 2 1 1 1 1 1 1 1 2
21 16 13 9 6 5 4 4 4 3 3 3 3 3 3 3 3 2 2 2 2 3 3 2 2 3 3 3 2 2 2 1 1 1 1 1 1 2
15 12 7 6 5 4 4 4 4 3 3 3 3 3 3 3 2 2 2 3 3 3 3 3 3 4 4 4 3 2 2 2 2 2 2 2 2 2
10 6 5 4 4 4 4 3 3 3 3 3 3 3 2 2 2 3 3 3 4 4 4 4 4 4 4 4 4 3 3 3 3 2 2 2 2 2
6 6 5 4 4 4 3 3 3 3 3 3 2 2 2 3 3 4 4 4 4 4 4 4 4 5 5 5 4 4 4 3 3 2 2 2 2 2
5 4 4 4 4 3 3 3 3 3 2 2 2 2 4 4 4 5 5 5 5 6 6 5 5 5 5 5 5 4 4 4 3 3 3 3 3 3
5 4 4 4 4 3 3 3 2 2 2 2 3 4 4 5 6 6 6 6 6 7 7 7 7 6 6 6 6 5 5 5 5 4 4 4 4 4
5 4 4 4 4 3 2 2 2 3 3 4 5 5 6 7 8 8 8 8 8 9 9 8 7 7 8 8 6 6 5 5 5 5 5 5 5 6
4 4 4 4 3 2 3 3 3 4 5 6 7 8 9 10 11 11 10 10 10 9 10 10 9 9 8 7 8 8 8 6 6 6 6 6 6 6
4 4 3 3 3 3 3 4 5 6 8 9 10 12 12 13 13 11 10 10 11 10 9 9 10 9 9 9 9 7 8 8 8 8 8 8 7 6
4 3 3 3 4 4 4 6 7 9 11 12 13 15 16 17 17 14 14 13 13 13 10 9 9 9 10 10 10 10 9 9 9 9 10 10 9 9
3 3 4 4 4 5 6 8 12 13 14 15 16 17 19 18 18 17 18 21 24 23 19 15 13 12 13 14 13 13 12 12 12 12 12 12 13 13
3 4 5 5 6 8 10 12 14 15 16 16 15 16 17 18 18 20 22 24 25 24 23 22 19 16 17 17 18 18 16 14 13 14 15 14 14 14
5 5 5 7 8 11 13 15 16 18 20 21 22 22 22 21 21 21 22 23 23 26 29 31 28 23 20 20 22 22 20 19 17 15 17 19 17 17
6 6 8 10 13 15 17 19 22 23 24 26 27 29 31 32 33 30 26 21 22 24 26 30 32 32 31 23 23 24 22 22 20 19 17 18 21 22

GFSNE_250_rhum_012.txt.gz
RH
17 17 21 24 26 27 30 32 34 30 35 42 38 36 33 31 28 23 21 18 18 19 18 16 15 15 12 10 10 10 9 9 8 8 9 11 11 15
21 26 28 28 33 37 41 38 30 27 26 43 42 38 35 24 21 18 16 14 11 9 8 6 5 4 4 4 4 4 4 4 4 4 4 4 5 6
31 31 32 35 39 40 32 32 34 31 27 34 28 25 21 18 16 14 10 7 5 4 3 3 3 3 3 3 3 3 3 3 3 3 3 3 3 3
35 35 36 39 34 32 34 33 33 28 19 16 18 15 12 11 8 6 5 4 3 3 3 3 3 2 2 2 2 2 2 2 2 2 2 2 2 2
35 40 35 33 34 35 34 29 24 19 15 12 10 8 6 5 5 4 4 3 2 2 2 2 2 2 2 2 2 2 2 2 2 2 2 2 2 2
39 36 33 32 32 31 28 21 16 12 11 8 5 4 4 3 3 3 3 3 2 2 2 2 2 2 2 2 2 2 2 2 2 2 2 2 2 2
37 32 34 32 28 22 17 13 10 7 5 4 3 3 3 3 3 3 3 3 2 2 3 2 2 2 2 2 2 2 1 1 1 1 1 1 2 2
32 33 31 25 22 18 12 7 6 4 3 2 2 3 4 3 3 3 3 3 3 2 3 2 2 2 2 2 2 2 2 1 1 1 1 1 1 2
33 28 26 21 14 9 6 6 5 3 3 2 3 3 3 3 3 3 2 2 2 2 2 1 2 2 2 2 2 2 2 2 2 1 1 2 2 2
28 24 17 11 7 6 5 5 4 3 3 3 3 3 3 3 3 2 2 2 2 2 2 2 2 3 3 3 2 2 2 2 2 2 1 1 1 1
25 15 7 6 6 5 5 4 4 3 3 3 3 3 2 2 2 2 2 2 2 3 3 4 3 4 4 3 3 3 3 3 3 2 2 1 1 1
14 8 6 6 6 5 4 4 3 3 3 3 2 2 2 2 2 2 3 3 3 4 5 4 4 4 4 4 4 4 4 3 3 2 2 2 1 1
8 7 7 6 5 4 4 4 3 3 2 2 2 2 2 2 3 4 4 4 5 6 5 5 5 4 4 4 4 4 4 3 3 3 2 2 2 1
8 7 6 5 5 4 4 4 3 3 3 3 3 3 3 4 5 5 6 7 7 6 6 7 6 6 5 4 5 4 4 3 3 3 2 3 2 2
8 6 5 5 4 4 4 3 3 4 4 4 4 4 5 6 7 7 8 8 7 8 7 7 8 7 6 5 5 5 4 4 3 3 3 3 2 2
6 6 5 5 4 4 3 4 4 4 4 5 6 7 8 10 10 10 9 10 10 9 9 9 8 7 7 7 6 5 5 5 4 4 3 3 3 3
6 6 5 5 4 4 4 5 4 5 6 8 8 9 11 13 13 13 10 10 11 11 10 10 9 10 9 7 8 7 6 5 5 5 4 4 4 4
6 5 5 4 4 4 5 5 6 8 10 10 11 13 14 16 16 16 14 13 14 11 11 10 10 10 10 9 8 8 7 6 6 6 5 5 5 5
5 5 4 4 5 6 6 8 10 11 13 14 14 15 15 17 15 15 16 17 18 20 17 14 9 10 10 10 11 10 8 7 6 7 6 6 5 5
5 5 5 5 6 7 9 11 13 14 16 17 17 17 16 16 16 18 18 22 22 23 20 18 14 15 14 12 13 14 12 10 8 7 8 8 8 6
5 5 6 6 7 9 13 15 17 19 22 23 24 26 25 23 21 20 19 19 23 28 24 19 21 17 17 17 18 16 15 14 11 10 10 9 9 8
5 6 6 7 11 15 16 17 18 19 20 20 20 21 23 27 29 28 27 22 18 22 29 24 29 25 19 19 21 19 16 16 14 13 12 14 13 12
7 7 8 11 15 17 16 16 16 16 16 18 21 21 20 20 22 22 26 31 26 18 23 26 26 31 31 20 21 22 19 17 16 16 16 15 15 17

GFSNE_250_rhum_015.txt.gz
RH
18 18 18 16 17 18 21 23 24 24 33 36 30 30 29 28 27 24 22 19 18 17 16 13 12 12 11 11 10 10 9 8 8 9 10 11 13 15
21 18 17 22 26 29 32 34 34 27 22 31 28 26 24 20 16 14 12 12 12 11 10 9 7 6 6 5 7 7 7 6 6 5 5 5 6 8
19 22 28 29 34 35 39 36 30 26 21 26 24 23 19 16 14 13 11 9 6 5 4 4 3 3 3 4 4 4 4 3 3 3 3 3 3 3
28 30 33 34 38 40 35 29 25 26 21 16 18 16 14 12 9 6 4 4 3 3 3 3 2 2 3 2 2 2 2 2 2 2 2 2 2 2
30 32 35 41 37 30 27 29 29 24 20 16 10 7 6 5 4 4 4 3 2 2 2 2 2 2 2 2 2 2 2 2 2 2 2 2 2 2
30 39 41 33 28 30 31 25 22 18 12 7 5 5 4 4 3 3 4 2 2 2 2 2 2 2 2 2 2 2 2 2 2 2 2 2 2 2
46 40 34 32 35 29 23 18 13 7 5 4 5 4 3 3 2 2 2 2 2 2 3 2 2 2 2 2 2 2 2 2 2 2 2 2 2 2
40 39 41 37 29 25 16 9 7 5 4 4 4 3 3 3 2 2 2 2 2 2 3 2 2 2 2 2 2 2 1 1 1 1 1 1 1 1
42 41 34 29 21 10 8 8 7 5 4 4 4 3 3 3 2 2 2 2 2 2 2 1 2 2 2 2 2 2 2 2 2 2 2 2 2 2
42 36 28 17 9 7 7 7 6 5 4 4 3 3 3 2 2 2 2 2 2 2 2 2 2 2 2 2 2 2 2 2 2 2 2 2 2 2
41 30 13 9 8 8 7 5 5 5 4 3 3 3 2 2 2 2 2 2 2 3 2 3 3 2 4 3 3 3 3 3 3 3 3 3 3 2
25 12 10 10 9 7 5 5 5 4 4 3 2 3 3 3 3 3 3 3 4 4 4 4 4 4 4 4 4 4 4 4 4 4 4 4 3 2
14 11 11 10 7 6 6 5 4 4 3 3 3 4 3 3 4 5 5 6 5 6 6 5 6 6 5 6 4 4 4 4 4 4 4 3 3 2
12 10 10 6 6 6 5 5 4 3 3 4 4 4 4 6 7 7 8 8 8 8 7 7 8 7 6 6 6 5 5 5 4 4 4 3 3 2
11 10 6 6 6 5 5 4 4 4 5 4 5 6 7 9 10 12 12 11 9 8 9 8 8 8 8 7 6 6 5 5 5 4 4 3 3 2
10 6 6 6 6 5 4 4 5 5 5 7 9 10 12 12 13 14 15 12 11 10 9 9 8 8 9 8 6 6 6 6 5 4 4 3 3 3
6 6 6 6 5 5 5 5 6 6 9 10 12 14 15 14 15 16 16 14 13 14 12 10 9 9 8 8 7 6 7 6 6 5 4 3 3 3
6 7 6 6 5 5 6 7 7 10 12 14 14 15 16 15 16 16 15 14 14 17 19 16 11 9 8 8 8 7 7 7 6 5 5 4 4 3
7 6 6 5 5 6 7 8 11 14 14 15 17 19 20 20 19 17 17 17 15 17 19 22 14 11 9 9 9 9 8 9 7 6 6 5 4 4
6 6 5 5 6 7 9 12 14 15 17 18 19 18 19 22 24 24 21 20 16 16 20 21 19 15 13 12 10 11 9 9 8 6 6 6 6 5
6 5 5 6 7 10 12 13 12 12 13 14 15 16 16 16 15 18 25 28 22 15 16 20 30 22 16 16 14 13 12 10 9 8 6 7 6 6
5 5 6 7 10 13 12 12 12 12 13 13 12 13 17 19 19 17 17 22 29 24 16 19 29 26 19 19 17 17 14 12 12 10 7 8 7 7
5 6 8 11 14 14 14 12 9 8 8 9 10 13 15 14 13 14 16 19 22 30 22 18 22 31 26 22 20 19 16 15 14 14 12 9 9 8

GFSNE_250_rhum_018.txt.gz
RH
29 27 27 26 23 24 20 16 20 19 31 34 37 38 31 26 23 22 22 20 19 18 17 16 14 12 11 10 10 10 9 9 9 9 10 11 12 12
28 27 27 25 26 20 20 24 26 31 27 33 25 19 17 15 15 15 14 12 10 8 7 6 6 6 5 4 4 5 6 7 7 8 8 8 8 8
27 28 28 27 20 24 27 32 39 33 23 25 22 20 18 16 14 8 5 3 3 3 3 3 3 2 3 3 3 3 3 3 3 3 3 3 3 3
30 30 27 20 28 28 39 39 32 28 22 16 17 16 15 9 6 5 4 4 2 2 2 2 2 2 2 2 2 2 2 2 2 2 2 2 2 2
32 24 23 29 32 44 39 35 31 24 18 14 11 9 7 6 6 5 4 3 2 2 2 2 2 2 2 2 2 2 2 2 2 2 2 2 2 2
22 28 29 38 40 35 38 32 23 18 13 8 7 6 6 5 4 3 3 3 2 2 2 2 2 2 2 2 2 2 2 2 2 2 2 2 2 2
32 30 40 35 43 42 32 23 18 11 8 7 6 5 4 4 4 3 3 3 2 2 2 2 2 2 2 2 2 2 2 2 2 2 2 2 2 2
33 39 38 46 44 38 23 19 12 7 6 6 5 5 4 4 3 3 3 2 2 2 2 1 2 2 2 2 2 2 2 2 2 2 2 2 2 2
36 42 48 43 40 24 19 12 9 7 6 5 5 5 4 4 3 2 2 2 3 3 2 2 2 2 2 2 2 2 2 2 2 2 2 2 2 2
49 47 47 44 27 16 10 10 8 8 6 5 5 4 4 3 3 3 3 2 2 3 3 3 3 2 3 3 3 3 3 3 3 3 2 2 2 2
50 52 47 30 14 11 10 9 8 6 5 5 5 4 4 4 4 3 3 2 3 4 5 5 5 3 4 3 4 4 4 4 4 4 3 3 2 2
55 50 27 13 10 10 9 8 6 6 5 4 4 4 4 4 5 6 6 5 6 6 6 6 6 6 5 5 5 5 5 5 4 4 3 3 3 3
51 26 14 11 10 9 8 5 6 6 5 4 4 4 5 6 7 8 9 9 8 10 10 7 7 7 7 6 6 6 6 5 4 4 4 4 3 3
28 15 11 11 9 7 5 6 6 5 4 4 5 5 6 9 11 12 12 12 12 14 10 8 8 8 8 8 8 7 7 6 5 5 4 4 3 3
16 12 10 9 6 5 6 6 5 4 4 5 5 7 9 11 12 14 13 14 15 14 13 12 9 9 8 9 9 9 8 6 6 5 4 3 3 3
15 10 7 5 6 6 6 5 4 5 5 6 7 10 11 14 15 15 14 14 14 14 14 14 10 9 9 9 10 10 8 7 6 5 4 3 3 3
10 6 5 6 6 5 5 5 5 6 6 10 11 13 16 18 20 19 17 15 14 14 15 16 13 11 10 10 11 11 8 8 7 6 4 3 3 3
5 4 6 6 5 4 4 5 6 8 12 12 13 14 15 17 19 19 22 20 16 16 17 18 14 12 12 13 12 12 8 8 8 6 4 3 4 3
4 6 6 5 4 4 5 6 7 11 12 10 10 12 13 14 14 15 18 25 20 16 16 21 16 13 14 15 12 12 8 8 8 6 5 4 4 3
7 6 5 5 5 5 6 8 10 10 11 11 10 10 12 12 15 17 19 18 25 22 15 21 20 15 18 18 14 14 9 9 10 7 6 5 4 3
7 5 5 5 6 8 10 10 10 9 9 9 9 9 9 11 12 16 20 22 19 23 18 17 25 19 19 19 17 15 10 10 10 8 6 6 5 4
5 4 6 7 9 12 12 10 8 8 8 8 8 8 9 11 13 14 13 15 20 21 21 15 23 21 21 22 20 16 12 10 10 8 7 7 6 5
5 6 7 11 15 14 10 8 8 7 6 6 6 6 6 7 7 8 9 12 16 20 23 16 21 25 23 23 20 17 14 14 11 9 8 7 8 6

GFSNE_250_rhum_021.txt.gz
RH
39 39 37 36 37 31 25 24 24 24 29 20 23 28 41 37 31 22 19 21 22 22 20 16 12 9 8 7 7 7 7 6 6 6 7 7 8 9
39 39 38 37 35 29 26 27 28 25 19 26 38 37 27 19 16 15 22 20 12 7 6 5 5 5 4 4 4 3 3 3 3 3 3 4 4 6
43 44 40 36 31 29 30 30 21 21 27 47 39 35 24 16 19 18 8 5 5 4 4 4 4 3 3 3 3 3 3 3 2 2 2 2 2 3
44 41 38 34 32 33 28 20 24 35 34 34 39 22 18 24 15 7 6 5 5 4 4 3 3 3 3 2 2 2 2 2 2 2 2 2 2 2
42 43 39 34 34 25 23 27 37 40 41 25 21 24 23 12 8 6 5 4 3 4 3 3 2 3 2 2 2 2 2 2 2 2 2 2 2 2
46 36 36 29 22 28 30 38 48 43 28 18 19 18 10 7 6 5 4 3 3 3 3 2 2 2 2 2 2 2 2 2 2 2 2 2 2 2
37 35 25 26 31 40 44 46 37 27 18 19 16 8 6 6 4 4 4 3 3 3 2 2 2 2 2 2 2 2 1 1 2 2 1 2 2 2
31 26 30 42 42 47 46 42 32 17 17 12 7 6 6 4 4 4 4 4 3 3 3 2 3 2 2 2 2 2 2 2 2 2 2 2 2 2
30 36 46 44 46 49 43 32 20 17 10 7 6 5 5 5 5 4 4 3 3 4 4 3 3 3 3 3 3 3 3 2 2 2 2 2 2 2
45 49 43 47 47 42 31 24 17 10 8 6 5 5 5 5 4 4 4 3 3 6 6 7 7 6 5 5 5 5 4 4 3 3 3 2 2 2
51 45 47 47 42 29 21 16 11 8 6 5 5 6 5 4 4 5 5 5 4 7 7 9 9 9 10 6 6 5 5 5 4 4 3 3 3 3
47 46 44 38 27 20 13 10 9 6 4 5 5 4 4 4 6 7 7 8 8 9 9 10 11 10 6 7 8 7 7 6 6 5 4 4 4 3
44 41 36 28 17 12 10 8 5 4 6 5 4 4 4 5 6 10 11 13 11 10 12 12 12 10 11 9 8 8 7 6 6 6 5 4 4 4
42 36 27 16 12 9 8 5 5 6 5 4 4 5 5 6 8 12 14 15 15 13 12 13 12 11 12 10 8 7 7 6 6 5 4 4 4 4
39 26 15 12 10 8 5 5 6 4 4 4 4 5 7 10 11 12 17 19 19 15 14 15 14 16 15 10 9 9 8 7 6 5 4 4 4 3
27 16 13 10 7 4 6 6 4 4 4 5 4 6 9 10 11 12 14 16 16 21 18 16 16 18 16 9 9 8 8 6 6 5 4 4 3 3
15 12 8 5 4 6 5 4 4 5 6 8 10 9 10 11 13 14 14 14 15 16 21 17 17 20 14 11 9 10 9 7 7 5 4 4 3 3
12 7 4 5 6 5 4 4 4 5 7 7 8 8 8 8 9 14 15 14 16 16 21 17 16 22 14 11 10 12 9 8 6 5 5 4 3 3
6 4 6 6 5 4 4 5 6 7 7 6 6 6 7 7 7 9 14 16 18 16 21 18 16 23 16 12 14 13 9 8 6 5 5 4 3 2
4 6 7 5 4 5 6 7 8 7 6 6 6 6 7 7 7 8 11 14 17 17 18 19 16 28 17 15 16 13 10 8 6 6 5 4 4 3
7 7 5 5 6 7 9 9 8 7 6 6 6 6 6 7 7 9 11 13 13 16 17 19 18 24 18 16 18 13 10 8 7 6 5 4 4 3
7 5 6 7 8 10 10 8 7 7 7 7 6 6 6 6 6 6 8 12 11 13 17 18 19 23 18 18 18 13 11 9 7 7 6 4 4 4
6 6 8 9 12 12 10 8 8 9 8 6 6 6 5 5 5 5 6 7 9 12 18 16 24 23 19 20 18 15 12 9 8 7 6 5 5 5

GFSNE_250_rhum_024.txt.gz
RH
49 45 44 45 44 43 44 43 41 37 39 42 37 32 30 23 22 24 22 27 31 23 22 27 30 26 19 12 6 5 6 6 5 5 5 4 4 5
52 49 48 49 49 46 45 45 44 41 39 38 31 25 21 26 30 29 28 22 22 25 26 17 12 7 5 5 5 5 4 4 4 4 4 4 4 3
55 52 52 52 51 52 53 50 46 44 36 34 24 26 30 34 27 20 17 22 22 18 8 6 6 5 5 4 4 4 3 3 3 3 3 3 3 3
52 56 59 60 60 56 50 49 43 35 27 24 33 45 42 34 20 25 23 18 10 6 5 6 5 4 4 4 4 4 3 3 3 2 2 2 2 2
60 65 64 59 55 53 48 39 32 25 28 37 46 45 36 30 29 25 15 6 6 5 4 4 4 4 4 3 3 3 3 2 2 2 2 2 2 2
68 62 60 55 50 45 36 28 26 36 45 44 40 31 30 29 23 10 8 6 4 4 4 4 4 4 3 3 3 3 2 2 2 2 2 2 2 2
66 60 53 49 42 32 28 33 47 46 45 33 28 28 28 18 9 6 5 4 3 4 5 3 4 3 3 3 3 3 3 2 2 2 2 2 2 1
62 57 52 40 32 31 44 49 49 41 30 27 28 20 11 7 6 4 3 4 4 4 4 3 4 3 4 4 4 3 3 3 3 3 2 2 2 2
59 51 38 30 38 50 50 50 44 31 28 26 17 8 7 6 4 4 4 5 4 3 5 3 5 4 6 6 6 6 4 4 4 4 3 2 2 2
53 32 32 45 45 47 51 42 35 31 24 14 7 6 4 3 5 5 5 4 3 3 6 5 7 6 8 7 8 7 6 6 5 4 4 3 3 3
32 37 46 46 51 51 42 36 31 25 12 6 4 4 4 5 5 4 4 4 4 3 7 8 11 8 9 9 10 10 9 6 6 6 5 5 4 4
48 45 47 47 49 43 33 30 24 12 7 4 3 4 5 5 4 4 6 6 6 6 8 10 12 12 8 11 13 10 9 8 7 7 6 6 5 4
45 46 47 47 41 32 29 19 10 7 4 4 5 5 4 4 4 5 8 11 13 11 12 14 14 13 12 9 9 12 10 8 8 8 7 6 6 5
46 45 44 40 33 29 17 11 7 4 4 6 5 4 4 5 7 9 11 12 12 14 10 15 18 16 12 12 14 11 10 9 8 8 8 7 6 5
45 47 42 33 28 14 10 7 4 5 6 4 3 4 5 7 8 9 10 12 12 15 14 14 20 18 15 14 12 14 10 8 9 9 7 7 6 5
51 43 32 25 13 12 8 5 5 6 4 4 5 6 7 7 7 6 6 7 10 14 15 12 18 17 14 17 19 10 12 8 7 9 7 6 5 5
38 30 20 13 12 7 5 6 6 4 4 5 7 7 6 6 6 6 6 6 7 10 14 15 16 17 15 15 17 14 10 10 10 7 6 5 4 4
26 15 13 11 7 5 6 5 4 4 6 7 6 6 6 5 5 5 6 6 6 8 11 14 18 17 14 18 13 13 11 10 8 7 6 5 4 3
14 13 11 7 5 7 5 4 5 7 8 6 5 5 6 6 5 5 6 6 7 9 12 13 16 15 16 20 18 14 13 10 8 6 6 4 4 3
13 10 6 6 7 5 4 5 8 8 6 5 5 6 5 5 5 5 6 6 8 10 13 12 17 14 17 19 18 14 11 8 7 7 5 4 3 3
9 6 7 7 5 5 6 9 9 7 6 6 5 6 6 6 6 5 5 6 8 12 12 11 18 14 20 19 16 13 10 8 8 7 5 4 3 4
6 8 7 5 5 6 10 10 8 8 7 6 6 6 6 6 5 5 5 6 7 12 11 15 15 18 21 20 16 13 9 8 8 6 5 4 4 4
8 7 5 6 7 11 11 10 8 9 8 7 7 6 6 6 5 5 6 6 7 10 11 18 14 23 22 18 16 11 9 9 7 6 5 4 5 5

GFSNE_250_rhum_027.txt.gz
RH
45 57 62 62 62 59 56 55 53 52 51 51 53 52 48 48 47 40 39 33 25 23 22 30 27 29 33 35 34 29 19 14 10 7 6 6 5 4
42 50 56 60 62 66 66 61 52 46 47 54 51 47 43 36 34 28 21 22 26 31 26 27 27 32 31 23 16 10 6 6 5 4 4 4 4 4
41 43 48 49 53 56 51 51 49 49 49 52 47 39 32 26 23 23 26 30 26 24 24 27 23 16 11 6 6 5 5 4 3 3 3 3 3 3
43 41 41 46 48 48 49 52 52 53 46 42 42 32 29 26 28 30 25 24 23 25 24 14 10 6 5 4 4 4 3 3 4 4 3 3 3 3
42 40 42 43 48 50 52 53 49 47 46 33 32 28 31 36 30 26 22 23 25 18 11 6 6 4 4 4 4 4 4 4 3 3 3 3 2 2
42 44 45 47 52 51 50 48 49 48 43 32 32 40 38 31 23 21 26 26 17 7 5 4 3 3 4 5 4 3 3 3 3 3 2 2 2 2
49 47 46 52 52 51 50 50 49 44 34 33 43 35 30 21 23 27 22 11 6 3 3 4 4 4 4 4 3 3 3 3 3 3 2 2 2 2
53 53 53 53 52 52 56 49 47 31 37 42 32 23 20 25 26 22 8 5 4 3 4 5 3 3 4 4 4 4 4 5 5 5 5 4 4 3
55 52 58 56 54 51 54 42 34 47 40 29 20 22 27 24 16 7 4 4 4 4 3 4 3 4 4 5 5 5 6 7 6 6 6 7 6 4
59 64 53 53 54 57 34 37 48 40 32 25 25 26 19 10 6 4 5 5 4 2 3 6 4 4 4 7 9 7 8 9 7 8 8 8 7 6
62 53 51 58 45 36 41 49 40 33 27 28 25 17 8 6 4 5 5 4 4 3 3 6 5 10 7 8 10 10 11 10 9 9 8 7 7 7
60 58 56 39 35 46 46 42 33 29 30 23 15 7 4 4 5 4 4 5 6 7 5 9 6 11 9 8 13 14 12 10 10 10 10 8 7 6
56 43 35 44 53 45 42 31 31 29 22 12 8 4 4 5 4 4 5 7 9 9 7 8 5 8 12 10 9 16 14 12 15 12 10 8 6 6
37 47 60 49 44 39 34 32 30 21 10 7 4 5 5 4 4 5 6 7 7 8 7 7 6 7 10 10 9 10 12 14 20 10 6 7 8 9
64 57 48 42 41 35 33 28 18 10 6 4 5 5 4 5 6 6 5 5 5 7 8 6 6 7 11 9 10 13 12 10 12 11 10 10 9 7
56 52 44 41 37 35 25 14 10 6 5 6 5 4 5 7 6 6 4 4 5 6 7 6 6 8 10 12 14 13 14 10 7 9 10 10 8 7
60 51 42 39 33 21 11 9 6 5 6 5 5 7 7 6 5 6 5 5 5 5 6 6 6 9 12 11 13 19 17 12 15 13 10 7 6 6
48 42 36 26 14 10 7 5 5 6 5 5 7 8 6 6 6 5 5 5 5 6 6 7 8 10 12 14 12 14 16 14 14 10 8 7 6 5
35 25 15 11 10 7 5 6 6 4 5 8 7 6 6 6 6 5 5 5 5 6 6 9 10 12 13 14 14 13 15 14 10 9 9 6 5 4
13 10 10 9 6 5 7 6 5 6 8 7 6 6 6 6 5 5 5 5 5 5 7 10 12 11 14 14 18 17 15 11 10 8 6 5 4 4
9 9 7 5 6 7 5 6 7 9 8 7 7 7 7 6 5 5 5 5 5 5 7 12 10 14 13 17 17 15 12 10 8 6 6 6 4 3
7 5 5 7 6 6 6 8 10 8 8 8 8 7 6 5 5 5 5 5 5 5 9 10 14 14 17 18 16 12 10 9 7 7 6 5 4 4
4 6 7 6 6 7 10 11 9 10 9 8 8 6 5 5 5 5 5 5 6 8 10 14 14 18 19 16 13 10 10 8 8 7 6 5 5 5

GFSNE_250_rhum_030.txt.gz
RH
86 96 92 76 70 52 44 42 40 39 44 53 43 44 40 44 47 50 49 47 42 34 27 19 16 14 21 24 26 31 30 29 27 26 25 22 17 13
81 91 100 99 72 48 44 44 42 36 34 39 38 37 39 44 45 41 39 33 28 23 18 14 21 21 25 28 29 28 27 26 20 12 7 5 5 5
79 84 86 86 66 50 49 48 39 36 32 31 28 29 32 36 37 33 30 22 18 16 19 21 22 25 28 27 26 22 15 9 5 4 3 3 3 3
61 64 70 66 57 52 51 47 40 37 31 22 29 31 35 34 31 25 20 18 17 21 20 25 26 27 24 18 10 6 4 3 3 2 3 2 2 2
52 45 46 49 51 50 47 44 38 36 28 22 25 34 36 29 24 18 17 19 22 24 25 29 25 19 10 5 4 3 3 3 4 4 4 4 3 3
52 44 42 44 47 46 45 42 36 28 26 27 34 30 26 23 16 17 21 22 27 28 26 21 11 6 4 3 4 4 4 4 3 3 3 3 2 2
48 43 43 45 46 49 45 40 35 34 36 38 34 28 18 16 18 19 22 26 33 23 14 9 4 4 4 4 4 3 3 3 3 3 3 3 3 3
48 46 46 47 51 46 41 39 41 37 38 32 22 19 19 22 17 22 26 29 31 12 4 4 4 4 3 3 3 3 3 3 3 3 3 4 4 4
51 52 55 54 50 45 47 44 42 34 25 20 18 22 20 17 22 26 26 21 12 5 4 5 4 3 3 3 4 6 5 5 5 5 6 6 7 6
72 70 61 55 52 50 43 39 35 28 25 24 25 20 19 22 26 24 18 9 6 4 4 4 3 4 3 4 6 8 9 8 8 8 8 10 10 9
70 57 48 51 47 36 34 38 36 29 29 30 22 21 24 25 19 13 6 5 5 4 3 5 4 5 5 4 5 8 10 8 8 10 11 13 12 10
57 54 43 35 35 32 29 28 30 42 38 28 23 25 21 17 8 5 4 5 4 5 4 6 5 5 6 4 5 9 10 9 9 10 14 13 10 12
42 38 36 34 31 28 30 47 50 38 27 27 26 22 14 6 5 5 4 3 4 6 6 5 4 4 5 4 4 8 11 9 10 11 13 11 11 13
41 39 37 34 40 53 55 51 36 31 27 24 19 10 6 5 5 4 4 5 5 5 5 4 4 4 4 5 4 6 10 10 12 14 13 12 14 12
43 44 52 60 58 55 47 34 29 25 20 13 9 6 5 5 4 5 5 5 4 4 5 4 4 4 5 5 5 5 8 10 15 14 16 15 11 9
62 58 52 52 46 38 32 27 20 13 9 8 5 6 5 4 5 6 5 4 4 4 6 4 4 5 6 5 5 9 10 10 13 18 14 12 12 9
55 51 47 38 30 28 20 12 9 8 6 5 6 5 5 6 5 5 5 5 5 5 5 5 5 6 6 7 10 9 13 14 13 9 8 8 8 6
41 35 28 24 18 12 10 8 6 5 6 6 5 6 6 5 5 5 6 5 5 5 5 5 5 7 8 8 10 15 18 14 14 12 10 7 7 6
25 19 13 10 9 8 5 5 6 6 6 6 7 6 5 5 5 5 5 5 5 5 5 5 7 9 8 10 12 13 16 14 11 9 8 6 5 4
12 10 8 6 5 5 5 6 6 6 7 8 6 6 6 6 5 5 5 5 5 5 5 6 10 8 12 13 15 14 12 10 8 7 6 5 4 4
8 6 4 5 5 6 6 7 7 8 9 7 7 7 7 6 5 5 5 5 5 6 6 7 9 13 15 18 18 16 11 9 8 7 6 6 6 5
4 4 5 6 6 7 8 8 9 8 8 9 8 8 6 5 5 5 5 6 6 6 7 10 15 17 19 17 14 10 9 8 8 7 7 7 6 7
5 6 6 6 7 8 10 9 9 9 10 9 8 7 6 6 6 6 7 7 7 8 13 16 20 19 18 13 10 9 9 8 8 8 8 8 8 6

GFSNE_250_rhum_033.txt.gz
RH
50 54 56 66 79 90 91 81 85 91 95 100 94 90 79 54 38 35 33 33 36 34 26 21 21 21 26 26 26 20 16 20 23 22 20 18 18 17
58 58 56 62 67 68 74 74 76 76 76 83 86 89 81 63 43 38 39 38 32 27 20 18 18 23 23 24 18 17 22 21 21 21 21 21 20 19
62 68 74 74 68 66 64 58 60 57 50 52 49 55 58 50 44 44 38 32 28 24 20 18 21 24 22 16 19 21 22 22 21 19 14 10 8 7
74 75 82 82 66 55 54 51 52 48 42 37 36 35 36 39 34 33 31 29 25 20 19 23 24 18 14 23 20 22 21 17 12 7 5 4 3 3
73 86 80 73 74 68 56 52 48 44 40 34 31 34 33 33 34 30 26 24 22 21 21 19 14 20 20 19 19 16 9 6 5 3 2 2 2 3
75 63 74 76 70 58 56 51 46 40 35 32 31 30 32 32 24 22 26 26 26 20 14 18 22 21 19 16 10 6 5 4 3 3 3 3 3 2
75 76 72 61 56 57 54 48 46 42 36 32 39 42 27 28 29 34 29 23 19 16 23 26 23 19 10 6 5 3 4 4 4 3 3 3 3 3
76 67 62 67 70 67 60 56 54 48 48 42 39 32 30 32 26 20 14 17 29 23 19 21 11 8 5 3 3 3 4 4 3 3 4 4 4 4
82 80 87 84 79 75 69 62 59 49 33 27 25 23 20 17 14 20 27 26 25 19 11 10 6 4 3 3 3 3 3 5 6 5 6 6 6 6
83 82 85 84 75 72 62 52 42 33 26 24 20 20 18 21 24 25 20 19 14 9 5 6 4 4 4 2 2 3 5 7 8 6 6 6 6 6
91 88 82 70 56 48 36 30 30 29 28 31 33 30 27 24 19 18 14 11 8 6 3 4 4 3 4 3 4 5 5 6 6 5 5 6 6 7
76 66 56 48 40 34 31 30 32 40 45 39 31 24 22 18 15 12 8 6 5 4 3 4 4 4 5 4 4 4 5 5 5 4 5 7 7 8
63 50 39 34 31 32 38 45 46 44 34 26 26 22 19 13 8 6 4 4 4 4 3 6 6 4 4 5 3 4 5 5 4 4 6 7 8 9
43 39 40 48 54 54 50 42 30 28 26 25 19 13 9 7 4 4 4 4 3 4 6 5 4 4 4 4 4 4 5 4 5 6 6 7 8 14
56 60 62 60 50 42 35 28 27 23 16 11 9 6 5 4 4 4 4 5 5 4 4 5 5 4 5 4 4 5 5 6 5 6 7 8 11 14
68 58 48 41 34 29 29 21 14 10 9 6 5 4 4 4 4 5 6 5 4 4 5 5 4 5 5 5 5 5 6 7 8 9 10 11 14 13
51 45 36 29 27 21 12 10 9 6 5 5 5 5 4 4 6 5 5 5 5 5 4 5 5 5 5 5 6 7 8 9 11 13 13 11 13 11
36 29 25 19 11 9 8 6 5 5 6 6 5 5 6 6 5 5 5 5 4 5 5 5 5 5 6 8 8 8 9 11 12 13 13 12 10 8
20 14 10 9 8 6 5 5 6 6 5 6 6 6 6 6 6 5 5 5 5 5 5 5 5 8 9 7 12 16 15 11 10 10 8 8 7 6
10 9 8 6 4 6 6 6 6 6 6 7 6 6 6 6 6 5 5 5 5 5 6 7 9 9 12 13 13 13 12 11 9 8 6 6 5 4
8 6 4 5 6 6 6 6 6 8 7 6 7 8 7 7 7 6 6 6 6 8 8 9 13 17 17 16 14 11 9 8 7 7 6 5 4 4
5 5 6 6 6 6 6 8 8 7 6 7 9 8 8 8 8 8 8 9 10 10 15 19 19 18 17 13 10 9 9 8 7 7 7 7 6 5
7 7 6 6 6 8 9 8 7 7 9 9 10 8 9 9 9 10 10 11 15 20 22 20 19 16 12 12 11 9 8 9 9 10 8 7 6 6

GFSNE_250_rhum_039.txt.gz
RH
100 100 100 93 77 75 80 74 84 80 70 76 77 79 80 85 81 63 54 50 48 52 53 51 51 49 43 42 44 52 53 45 40 37 34 32 32 31
100 100 99 91 70 73 77 77 88 82 61 75 84 93 99 97 87 74 70 70 68 60 53 48 44 42 41 39 39 40 40 42 37 33 29 27 24 24
100 100 100 100 66 100 75 100 97 68 58 76 79 83 94 100 95 72 70 72 71 68 64 63 58 52 50 49 45 41 37 34 31 30 27 24 23 21
100 100 100 99 94 100 100 78 62 65 68 80 74 77 78 64 60 60 62 67 70 69 70 68 64 59 60 55 46 38 32 28 24 22 21 20 18 18
100 100 98 93 91 77 80 88 62 71 66 71 72 63 52 49 48 51 58 60 55 48 43 37 32 31 30 30 28 28 27 25 23 21 20 20 18 16
100 100 100 93 69 77 68 65 63 68 67 50 43 44 41 50 49 43 41 35 33 31 26 22 20 19 20 20 22 24 22 21 21 22 21 20 18 17
98 100 100 70 57 61 68 65 55 56 59 51 46 56 56 52 37 36 31 30 37 36 39 41 39 33 31 28 27 24 22 20 19 19 18 17 16 14
97 100 100 92 84 97 72 67 58 61 61 60 72 73 55 43 37 42 47 45 46 38 28 29 23 22 19 18 13 10 9 8 7 6 6 5 5 5
70 83 78 81 85 63 53 46 59 76 78 80 68 52 47 46 45 45 36 30 30 28 21 22 17 14 8 7 6 5 4 4 4 3 3 3 3 3
74 71 69 71 71 64 76 98 100 97 72 65 56 53 49 43 35 32 29 26 26 19 8 7 7 6 6 5 3 2 2 2 3 4 4 4 3 2
78 87 94 73 87 94 94 93 80 79 74 66 57 47 40 33 28 24 20 16 11 9 5 5 5 4 4 4 3 2 2 3 4 4 4 3 3 3
78 76 81 91 95 96 81 82 87 77 60 50 42 33 28 25 19 13 9 8 8 6 3 4 4 4 4 4 3 3 3 4 4 4 4 4 3 3
80 82 90 94 85 88 83 69 56 50 43 37 32 29 25 17 11 8 6 5 4 5 4 5 5 3 4 5 5 3 4 4 4 4 4 4 4 4
99 97 95 99 88 76 63 52 43 38 34 30 24 15 12 10 6 5 5 5 4 5 6 5 5 5 5 4 5 5 4 4 4 4 4 4 4 4
97 95 96 81 59 49 43 39 35 28 23 14 12 9 6 5 6 6 4 4 5 5 4 5 5 5 4 4 4 4 4 4 4 4 5 5 5 5
83 63 56 50 43 39 30 23 18 13 11 8 6 6 6 6 5 5 5 5 4 5 6 6 5 5 4 4 4 4 5 5 5 6 6 7 6 6
57 51 45 37 29 23 15 13 10 8 7 7 7 6 5 6 6 6 5 6 7 6 7 6 5 5 5 6 5 6 7 7 8 8 8 8 8 9
51 44 32 23 17 13 10 8 7 8 7 7 7 8 8 6 5 6 7 7 7 8 8 7 7 8 9 9 9 10 10 13 14 14 14 13 13 11
36 23 15 12 10 8 8 8 8 8 10 10 10 9 6 6 7 8 7 8 9 8 8 9 10 11 16 19 19 17 17 15 13 12 10 10 9 9
16 13 10 8 8 9 9 8 9 13 14 11 9 7 7 7 7 7 9 10 10 11 12 15 19 21 19 17 16 14 12 11 10 9 8 8 8 7
10 9 8 8 9 9 9 11 14 16 12 8 6 6 7 8 8 10 11 11 13 17 21 22 20 18 15 12 12 12 12 13 12 10 8 7 7 8
8 8 9 10 9 11 14 16 14 10 8 7 7 8 9 10 9 12 13 16 24 25 22 20 17 14 14 16 17 14 10 10 11 12 12 11 9 7
7 8 10 10 11 16 16 12 9 8 7 8 8 9 11 10 12 13 19 24 25 24 21 17 15 17 20 20 18 13 13 12 10 9 10 10 10 9

GFSNE_250_rhum_042.txt.gz
RH
100 100 100 100 100 100 100 100 100 100 99 82 58 65 63 55 64 85 59 73 80 87 87 75 69 69 86 80 89 100 100 98 84 66 55 48 42 38
100 100 100 100 100 100 100 100 100 100 91 72 68 83 70 74 77 65 68 64 71 65 62 66 71 84 80 80 83 86 92 94 98 99 93 77 61 51
100 100 100 100 100 100 100 100 100 100 82 82 98 93 71 77 93 87 64 63 58 61 65 61 60 56 57 56 54 52 50 51 52 52 56 58 61 59
100 100 100 100 100 100 100 100 100 99 85 98 80 69 70 80 88 83 63 60 58 56 51 46 42 36 32 30 28 27 27 29 30 31 32 30 32 35
100 100 100 100 100 100 100 100 100 100 97 76 71 55 62 72 57 60 51 49 45 38 34 27 23 22 21 24 31 36 39 38 35 34 32 31 28 24
100 100 100 100 100 100 100 100 85 74 62 56 56 66 65 65 60 54 49 36 32 36 34 31 32 30 27 26 27 26 26 27 28 29 28 26 21 20
98 100 100 100 100 100 93 96 76 75 61 62 71 86 96 58 56 46 32 25 43 44 39 35 31 26 23 22 20 17 16 14 13 13 14 15 17 19
100 100 100 100 98 82 74 60 66 74 85 82 97 66 65 56 42 42 48 46 44 41 32 34 25 26 21 18 11 7 5 4 4 4 5 5 5 6
100 92 94 88 72 57 72 76 96 94 72 67 74 72 63 48 49 48 44 39 37 34 25 32 24 22 13 9 6 5 4 4 4 3 3 4 4 4
96 80 68 73 82 89 98 99 78 78 85 79 60 51 46 46 43 40 38 37 35 29 17 14 12 10 7 4 3 2 2 3 3 4 4 4 4 3
58 80 92 99 95 79 86 97 93 84 61 53 50 51 48 43 41 39 34 30 19 13 7 7 6 4 5 5 3 2 2 3 3 4 4 3 3 3
100 100 99 100 100 99 93 78 59 58 60 62 55 46 46 43 36 32 21 13 10 8 4 5 4 4 5 3 3 3 3 3 3 3 4 4 4 4
100 100 98 99 99 84 64 60 64 65 57 53 54 50 41 33 25 14 9 7 6 6 5 5 5 4 4 5 4 4 4 4 4 4 4 4 4 4
94 90 79 66 60 63 69 67 60 59 55 49 44 37 30 15 10 7 6 6 6 6 6 6 6 5 5 5 5 4 4 4 4 4 4 4 4 4
90 85 85 88 82 66 59 58 53 49 43 38 29 16 11 8 8 8 7 7 8 8 6 6 6 6 6 6 6 6 5 5 5 5 5 5 6 5
96 85 79 69 61 58 52 44 40 35 24 12 10 8 8 8 8 9 9 8 6 6 8 7 6 6 7 7 7 7 7 7 8 8 8 7 6 6
79 70 61 55 50 44 39 31 24 14 9 8 9 9 8 9 10 10 8 7 7 7 7 9 9 8 8 9 10 12 14 13 14 13 12 11 10 10
62 55 51 46 41 29 21 13 9 8 9 9 9 10 11 12 9 7 7 8 8 8 8 9 11 14 17 19 18 16 14 13 12 11 10 9 10 9
55 49 42 27 17 10 9 8 8 10 10 12 14 14 10 9 7 7 8 8 9 10 11 16 19 21 22 19 16 13 12 13 12 11 10 8 6 7
40 28 17 11 9 8 7 9 10 10 13 15 12 9 8 7 7 9 10 9 9 13 21 22 22 20 18 15 14 17 16 13 11 8 7 9 10 10
22 12 10 8 7 7 9 10 12 14 14 10 9 8 7 8 9 10 9 11 14 23 23 22 20 18 17 17 14 12 13 13 14 14 12 11 8 8
10 9 8 7 7 10 11 12 16 13 10 9 8 7 8 10 10 10 11 16 26 24 22 20 19 18 16 15 14 15 14 13 13 12 12 11 10 8
9 9 7 7 10 11 11 15 14 11 8 8 8 8 10 10 12 11 16 26 25 23 20 18 22 25 23 22 19 16 16 14 12 11 11 10 10 9